| time (UTC) | temp C | wind direction | speed KPH | gust KPH | rain 1hr cm | rain 24hr cm | rain mn cm | humidity % | barometer mb |
| 20260505153041 | 26 | 228 | 0.0 | 3.2 | 0.00 | 0.00 | 0.00 | 42 | 1010.6 |
| 20260505151529 | 25 | 145 | 0.0 | 8.0 | 0.00 | 0.00 | 0.00 | 46 | 1010.7 |
| 20260505124553 | 18 | 207 | 0.0 | 4.8 | 0.00 | 0.00 | 0.00 | 65 | 1011.2 |
| 20260505123057 | 17 | 193 | 0.0 | 8.0 | 0.00 | 0.00 | 0.00 | 65 | 1011.0 |
| 20260505121550 | 17 | 266 | 0.0 | 4.8 | 0.00 | 0.00 | 0.00 | 66 | 1011.0 |
| 20260505120104 | 17 | 207 | 0.0 | 6.4 | 0.00 | 0.00 | 0.00 | 66 | 1011.1 |
| 20260505114542 | 16 | 207 | 0.0 | 8.0 | 0.00 | 0.00 | 0.00 | 69 | 1011.1 |
| 20260505113038 | 15 | 219 | 0.0 | 3.2 | 0.00 | 0.00 | 0.00 | 72 | 1011.1 |
| 20260505111536 | 15 | 194 | 0.0 | 3.2 | 0.00 | 0.00 | 0.00 | 75 | 1011.0 |
| 20260505101528 | 13 | 111 | 0.0 | 1.6 | 0.00 | 0.00 | 0.00 | 79 | 1010.9 |
| 20260505100027 | 13 | 88 | 0.0 | 1.6 | 0.00 | 0.00 | 0.00 | 78 | 1010.8 |
| 20260505094525 | 13 | 81 | 0.0 | 1.6 | 0.00 | 0.00 | 0.00 | 76 | 1010.7 |
| 20260505093025 | 14 | 218 | 0.0 | 1.6 | 0.00 | 0.00 | 0.00 | 74 | 1010.2 |
| 20260505091523 | 14 | 210 | 0.0 | 6.4 | 0.00 | 0.00 | 0.00 | 75 | 1010.0 |
| 20260505090021 | 13 | 205 | 0.0 | 1.6 | 0.00 | 0.00 | 0.00 | 75 | 1010.1 |
| 20260505084515 | 13 | 156 | 0.0 | 3.2 | 0.00 | 0.00 | 0.00 | 74 | 1010.1 |
| 20260505083010 | 13 | 139 | 0.0 | 4.8 | 0.00 | 0.00 | 0.00 | 74 | 1010.1 |
| 20260505081506 | 13 | 205 | 0.0 | 3.2 | 0.00 | 0.00 | 0.00 | 74 | 1010.1 |
| 20260505080006 | 13 | 198 | 0.0 | 1.6 | 0.00 | 0.00 | 0.00 | 74 | 1010.2 |
| 20260505074504 | 13 | 195 | 0.0 | 3.2 | 0.00 | 0.00 | 0.00 | 75 | 1010.1 |
| 20260505073004 | 13 | 156 | 0.0 | 4.8 | 0.00 | 0.00 | 0.00 | 75 | 1010.3 |
| 20260505071502 | 13 | 160 | 0.0 | 1.6 | 0.00 | 0.00 | 0.00 | 75 | 1010.1 |
| 20260505070002 | 13 | 211 | 0.0 | 3.2 | 0.00 | 0.00 | 0.00 | 75 | 1010.1 |
| 20260505064702 | 13 | 176 | 0.0 | 1.6 | 0.00 | 0.00 | 0.00 | 75 | 1010.1 |
| 20260505063106 | 13 | 137 | 0.0 | 1.6 | 0.00 | 0.00 | 0.00 | 75 | 1010.1 |
| 20260505061600 | 13 | 215 | 0.0 | 1.6 | 0.00 | 0.00 | 0.00 | 75 | 1010.2 |
| 20260505060057 | 13 | 211 | 0.0 | 1.6 | 0.00 | 0.00 | 0.00 | 75 | 1010.2 |
| 20260505054555 | 13 | 165 | 0.0 | 1.6 | 0.00 | 0.00 | 0.00 | 74 | 1010.4 |
| 20260505053054 | 13 | 198 | 0.0 | 3.2 | 0.00 | 0.00 | 0.00 | 73 | 1010.4 |
| 20260505051553 | 13 | 176 | 0.0 | 4.8 | 0.00 | 0.00 | 0.00 | 73 | 1010.4 |
| 20260505041551 | 13 | 160 | 0.0 | 1.6 | 0.00 | 0.00 | 0.00 | 69 | 1010.7 |
| 20260505040048 | 13 | 191 | 0.0 | 1.6 | 0.00 | 0.00 | 0.00 | 67 | 1010.6 |
| 20260505034604 | 14 | 156 | 0.0 | 1.6 | 0.00 | 0.00 | 0.00 | 66 | 1010.7 |
| 20260505033044 | 14 | 186 | 0.0 | 1.6 | 0.00 | 0.00 | 0.00 | 63 | 1010.8 |
| 20260505031545 | 15 | 188 | 0.0 | 3.2 | 0.00 | 0.00 | 0.00 | 61 | 1010.8 |
| 20260505030048 | 15 | 173 | 0.0 | 1.6 | 0.00 | 0.00 | 0.00 | 59 | 1010.9 |
| 20260505024541 | 15 | 155 | 0.0 | 3.2 | 0.00 | 0.00 | 0.00 | 57 | 1010.9 |
| 20260505023045 | 15 | 172 | 0.0 | 1.6 | 0.00 | 0.00 | 0.00 | 55 | 1010.9 |
| 20260505021542 | 15 | 252 | 0.0 | 1.6 | 0.00 | 0.00 | 0.00 | 53 | 1011.1 |
| 20260505020054 | 16 | 154 | 0.0 | 1.6 | 0.00 | 0.00 | 0.00 | 50 | 1011.0 |
| 20260505014542 | 16 | 193 | 0.0 | 1.6 | 0.00 | 0.00 | 0.00 | 49 | 1011.0 |
| 20260505013042 | 16 | 149 | 0.0 | 0.0 | 0.00 | 0.00 | 0.00 | 47 | 1010.8 |
| 20260505011540 | 17 | 224 | 0.0 | 0.0 | 0.00 | 0.00 | 0.00 | 46 | 1010.7 |
| 20260505010047 | 17 | 153 | 0.0 | 1.6 | 0.00 | 0.00 | 0.00 | 45 | 1010.5 |
| 20260505004557 | 17 | 138 | 0.0 | 1.6 | 0.00 | 0.00 | 0.00 | 45 | 1010.3 |
| 20260505003038 | 17 | 174 | 0.0 | 1.6 | 0.00 | 0.00 | 0.00 | 44 | 1010.2 |
| 20260505001540 | 18 | 222 | 0.0 | 3.2 | 0.00 | 0.00 | 0.00 | 43 | 1010.1 |
| 20260505000038 | 18 | 208 | 0.0 | 1.6 | 0.00 | 0.00 | 0.00 | 42 | 1009.9 |
| 20260504234537 | 18 | 218 | 0.0 | 6.4 | 0.00 | 0.00 | 0.00 | 41 | 1009.7 |
| 20260504233036 | 19 | 215 | 0.0 | 3.2 | 0.00 | 0.00 | 0.00 | 40 | 1009.4 |
| 20260504231540 | 19 | 205 | 0.0 | 3.2 | 0.00 | 0.00 | 0.00 | 39 | 1009.4 |
| 20260504230037 | 20 | 214 | 0.0 | 3.2 | 0.00 | 0.00 | 0.00 | 39 | 1009.1 |
| 20260504224539 | 20 | 217 | 0.0 | 3.2 | 0.00 | 0.00 | 0.00 | 38 | 1009.2 |
| 20260504223034 | 20 | 19 | 0.0 | 1.6 | 0.00 | 0.00 | 0.00 | 38 | 1009.3 |
| 20260504221540 | 21 | 222 | 0.0 | 4.8 | 0.00 | 0.00 | 0.00 | 37 | 1009.3 |
| 20260504220031 | 21 | 229 | 0.0 | 6.4 | 0.00 | 0.00 | 0.00 | 37 | 1009.4 |
| 20260504214531 | 21 | 211 | 0.0 | 3.2 | 0.00 | 0.00 | 0.00 | 35 | 1009.6 |
| 20260504213038 | 22 | 243 | 0.0 | 4.8 | 0.00 | 0.00 | 0.00 | 36 | 1009.6 |
| 20260504211534 | 23 | 276 | 0.0 | 3.2 | 0.00 | 0.00 | 0.00 | 34 | 1009.8 |
| 20260504210030 | 23 | 246 | 0.0 | 4.8 | 0.00 | 0.00 | 0.00 | 34 | 1009.8 |
| 20260504204533 | 24 | 208 | 0.0 | 3.2 | 0.00 | 0.00 | 0.00 | 31 | 1009.7 |
| 20260504203027 | 24 | 203 | 0.0 | 6.4 | 0.00 | 0.00 | 0.00 | 32 | 1009.8 |
| 20260504201527 | 23 | 231 | 0.0 | 3.2 | 0.00 | 0.00 | 0.00 | 30 | 1009.8 |
| 20260504200026 | 23 | 232 | 0.0 | 4.8 | 0.00 | 0.00 | 0.00 | 32 | 1009.9 |
| 20260504194523 | 23 | 205 | 0.0 | 6.4 | 0.00 | 0.00 | 0.00 | 34 | 1010.0 |
| 20260504193020 | 22 | 257 | 0.0 | 6.4 | 0.00 | 0.00 | 0.00 | 34 | 1010.0 |
| 20260504191517 | 23 | 248 | 1.6 | 6.4 | 0.00 | 0.00 | 0.00 | 33 | 1010.3 |
| 20260504190019 | 23 | 134 | 1.6 | 12.9 | 0.00 | 0.00 | 0.00 | 32 | 1010.4 |
| 20260504184526 | 22 | 243 | 1.6 | 4.8 | 0.00 | 0.00 | 0.00 | 34 | 1010.6 |
| 20260504183007 | 22 | 240 | 0.0 | 4.8 | 0.00 | 0.00 | 0.00 | 38 | 1010.8 |
| 20260504181504 | 21 | 127 | 0.0 | 4.8 | 0.00 | 0.00 | 0.00 | 35 | 1011.1 |
| 20260504180003 | 21 | 193 | 1.6 | 11.3 | 0.00 | 0.00 | 0.00 | 34 | 1011.3 |
| 20260504174600 | 21 | 141 | 0.0 | 4.8 | 0.00 | 0.00 | 0.00 | 35 | 1011.4 |
| 20260504173104 | 21 | 267 | 0.0 | 4.8 | 0.00 | 0.00 | 0.00 | 39 | 1011.6 |
| 20260504171558 | 21 | 249 | 0.0 | 6.4 | 0.00 | 0.00 | 0.00 | 37 | 1011.8 |